EW2809 Weather Reports


time (UTC)temp
C
wind
direction
speed
KPH
gust
KPH
rain 1hr
cm
rain 24hr
cm
rain mn
cm
humidity
%
barometer
mb
20260504130537 13 0.0 0.0 0.00 0.00 0.00 67 1014.8
20260504110516 7 0.0 0.0 0.00 0.00 0.00 81 1015.2
20260504100516 8 0.0 0.0 0.00 0.00 0.00 81 1015.2
20260504081516 7 0.0 0.0 0.00 0.00 0.00 83 1015.5
20260504081036 7 0.0 0.0 0.00 0.00 0.00 84 1015.5
20260504080516 7 0.0 0.0 0.00 0.00 0.00 84 1015.6
20260504050557 6 0.0 0.0 0.00 0.00 0.00 77 1015.8
20260504050015 6 0.0 0.0 0.00 0.00 0.00 77 1015.7
20260504045516 6 0.0 0.0 0.00 0.00 0.00 75 1015.8
20260504045015 6 0.0 0.0 0.00 0.00 0.00 75 1015.8
20260504044515 6 0.0 0.0 0.00 0.00 0.00 76 1015.8
20260504044016 6 0.0 0.0 0.00 0.00 0.00 74 1015.7
20260504043515 5 0.0 0.0 0.00 0.00 0.00 73 1015.7
20260504043036 6 0.0 0.0 0.00 0.00 0.00 73 1015.6
20260504042516 6 0.0 0.0 0.00 0.00 0.00 73 1015.7
20260504042016 6 0.0 0.0 0.00 0.00 0.00 72 1015.7
20260504041515 6 0.0 0.0 0.00 0.00 0.00 73 1015.6
20260504041015 6 0.0 0.0 0.00 0.00 0.00 73 1015.6
20260504040536 6 0.0 0.0 0.00 0.00 0.00 73 1015.6
20260504040016 6 0.0 0.0 0.00 0.00 0.00 73 1015.6
20260504035515 6 0.0 0.0 0.00 0.00 0.00 73 1015.7
20260504035035 6 0.0 0.0 0.00 0.00 0.00 73 1015.7
20260504034515 6 0.0 0.0 0.00 0.00 0.00 74 1015.7
20260504034016 6 0.0 0.0 0.00 0.00 0.00 74 1015.6
20260504033516 6 0.0 0.0 0.00 0.00 0.00 74 1015.6
20260504033015 6 0.0 0.0 0.00 0.00 0.00 75 1015.4
20260504032515 6 0.0 0.0 0.00 0.00 0.00 74 1015.4
20260504032015 6 0.0 0.0 0.00 0.00 0.00 76 1015.4
20260504031515 6 0.0 0.0 0.00 0.00 0.00 74 1015.3
20260504031015 6 0.0 0.0 0.00 0.00 0.00 74 1015.2
20260504030516 6 0.0 0.0 0.00 0.00 0.00 75 1015.3
20260504030015 6 0.0 0.0 0.00 0.00 0.00 75 1015.2
20260504025515 6 0.0 0.0 0.00 0.00 0.00 75 1015.1
20260504025015 6 0.0 0.0 0.00 0.00 0.00 73 1015.1
20260504024515 6 0.0 0.0 0.00 0.00 0.00 72 1015.1
20260504024015 6 0.0 0.0 0.00 0.00 0.00 71 1015.1
20260504023516 6 0.0 0.0 0.00 0.00 0.00 72 1015.1
20260504023015 7 0.0 0.0 0.00 0.00 0.00 68 1015.0
20260504022535 7 0.0 0.0 0.00 0.00 0.00 67 1015.0
20260504022015 7 0.0 0.0 0.00 0.00 0.00 66 1014.9
20260504021535 7 0.0 0.0 0.00 0.00 0.00 68 1015.0
20260504021015 7 0.0 0.0 0.00 0.00 0.00 70 1015.0
20260504020515 7 0.0 0.0 0.00 0.00 0.00 70 1015.0
20260504020018 7 0.0 0.0 0.00 0.00 0.00 67 1014.9
20260504015517 7 0.0 0.0 0.00 0.00 0.00 65 1014.9
20260504015017 7 0.0 0.0 0.00 0.00 0.00 64 1014.8
20260504014517 8 0.0 0.0 0.00 0.00 0.00 62 1014.8
20260504014017 8 0.0 0.0 0.00 0.00 0.00 62 1014.8
20260504013518 8 0.0 0.0 0.00 0.00 0.00 61 1014.8
20260504013017 8 0.0 0.0 0.00 0.00 0.00 62 1014.8
20260504012517 8 0.0 0.0 0.00 0.00 0.00 61 1014.7
20260504012017 8 0.0 0.0 0.00 0.00 0.00 60 1014.6
20260504011517 8 0.0 0.0 0.00 0.00 0.00 60 1014.6
20260504011017 8 0.0 0.0 0.00 0.00 0.00 59 1014.6
20260504010517 9 0.0 0.0 0.00 0.00 0.00 57 1014.6
20260504010017 9 0.0 0.0 0.00 0.00 0.00 56 1014.5
20260504005517 10 0.0 0.0 0.00 0.00 0.00 59 1014.5
20260504005017 10 0.0 0.0 0.00 0.00 0.00 57 1014.5
20260504004538 10 0.0 0.0 0.00 0.00 0.00 55 1014.4
20260504004017 10 0.0 0.0 0.00 0.00 0.00 54 1014.3
20260504003517 10 0.0 0.0 0.00 0.00 0.00 54 1014.3
20260504003018 10 0.0 0.0 0.00 0.00 0.00 53 1014.3
20260504002517 11 0.0 0.0 0.00 0.00 0.00 51 1014.2
20260504002017 11 0.0 0.0 0.00 0.00 0.00 49 1014.2
20260504001517 11 0.0 0.0 0.00 0.00 0.00 49 1014.2
20260504001017 11 0.0 0.0 0.00 0.00 0.00 49 1014.1
20260504000517 11 0.0 0.0 0.00 0.00 0.00 50 1014.1
20260504000037 11 0.0 0.0 0.00 0.00 0.00 48 1014.0
20260503235539 11 0.0 0.0 0.00 0.00 0.00 47 1014.0
20260503235017 12 0.0 0.0 0.00 0.00 0.00 48 1014.0
20260503234537 12 90 0.0 1.6 0.00 0.00 0.00 47 1013.9
20260503234017 12 0.0 0.0 0.00 0.00 0.00 45 1013.8
20260503233517 12 0.0 0.0 0.00 0.00 0.00 45 1013.8
20260503233017 12 0.0 0.0 0.00 0.00 0.00 46 1013.8
20260503232519 13 90 0.0 1.6 0.00 0.00 0.00 45 1013.7
20260503232017 13 90 0.0 1.6 0.00 0.00 0.00 44 1013.6
20260503231517 13 90 0.0 1.6 0.00 0.00 0.00 47 1013.5
20260503231017 13 90 0.0 1.6 0.00 0.00 0.00 47 1013.5
20260503230517 13 90 0.0 1.6 0.00 0.00 0.00 43 1013.6
20260503230017 13 90 0.0 1.6 0.00 0.00 0.00 46 1013.6
20260503225537 13 90 0.0 1.6 0.00 0.00 0.00 42 1013.6
20260503225038 13 90 0.0 3.2 0.00 0.00 0.00 42 1013.6
20260503224517 13 90 0.0 3.2 0.00 0.00 0.00 43 1013.6
20260503224017 14 90 0.0 3.2 0.00 0.00 0.00 44 1013.7
20260503223517 14 90 0.0 4.8 0.00 0.00 0.00 43 1013.7
20260503223017 14 90 0.0 1.6 0.00 0.00 0.00 44 1013.7
20260503222517 14 90 0.0 3.2 0.00 0.00 0.00 43 1013.7
20260503222017 14 90 0.0 1.6 0.00 0.00 0.00 43 1013.7
20260503221538 14 90 0.0 1.6 0.00 0.00 0.00 44 1013.6
20260503221017 14 90 1.6 4.8 0.00 0.00 0.00 43 1013.7
20260503220517 15 90 0.0 1.6 0.00 0.00 0.00 44 1013.7
20260503220017 15 90 0.0 1.6 0.00 0.00 0.00 43 1013.7
20260503215517 15 90 0.0 3.2 0.00 0.00 0.00 40 1013.8
20260503215037 15 90 0.0 4.8 0.00 0.00 0.00 45 1013.9
20260503214518 15 90 1.6 3.2 0.00 0.00 0.00 44 1013.8
20260503214017 15 90 0.0 3.2 0.00 0.00 0.00 43 1013.8
20260503213517 15 90 1.6 6.4 0.00 0.00 0.00 40 1013.9
20260503213017 15 90 0.0 3.2 0.00 0.00 0.00 39 1013.8
20260503212517 15 90 1.6 11.3 0.00 0.00 0.00 41 1013.7
20260503212016 15 90 1.6 8.0 0.00 0.00 0.00 37 1013.8
20260503211537 15 90 1.6 6.4 0.00 0.00 0.00 39 1013.7
20260503211037 15 90 1.6 8.0 0.00 0.00 0.00 44 1013.8
20260503210517 15 90 0.0 3.2 0.00 0.00 0.00 44 1013.8
20260503210016 15 90 1.6 4.8 0.00 0.00 0.00 38 1013.9
20260503205517 15 90 0.0 3.2 0.00 0.00 0.00 41 1014.0
20260503205017 15 90 1.6 6.4 0.00 0.00 0.00 39 1013.9
20260503204517 16 90 1.6 11.3 0.00 0.00 0.00 39 1013.9
20260503204018 16 90 0.0 3.2 0.00 0.00 0.00 39 1013.8
20260503203517 16 90 1.6 4.8 0.00 0.00 0.00 37 1013.9
20260503203037 16 90 1.6 11.3 0.00 0.00 0.00 37 1013.8
20260503202517 16 90 1.6 6.4 0.00 0.00 0.00 39 1014.0
20260503202017 17 90 0.0 3.2 0.00 0.00 0.00 37 1014.1
20260503201517 17 90 0.0 4.8 0.00 0.00 0.00 44 1014.2
20260503201017 17 90 1.6 6.4 0.00 0.00 0.00 39 1014.2
20260503200537 17 90 1.6 4.8 0.00 0.00 0.00 45 1014.3
20260503200017 17 90 1.6 4.8 0.00 0.00 0.00 38 1014.3
20260503195516 17 90 1.6 6.4 0.00 0.00 0.00 42 1014.4
20260503195037 17 90 1.6 3.2 0.00 0.00 0.00 39 1014.5
20260503194516 16 90 1.6 11.3 0.00 0.00 0.00 40 1014.5
20260503194037 16 90 1.6 8.0 0.00 0.00 0.00 38 1014.5
20260503193517 16 90 1.6 6.4 0.00 0.00 0.00 40 1014.7
20260503193017 16 90 1.6 4.8 0.00 0.00 0.00 39 1014.8
20260503192517 17 90 3.2 9.7 0.00 0.00 0.00 40 1014.8
20260503192016 17 90 1.6 6.4 0.00 0.00 0.00 46 1014.9
20260503191517 16 90 1.6 11.3 0.00 0.00 0.00 40 1015.0
20260503191038 16 90 1.6 4.8 0.00 0.00 0.00 43 1015.1
20260503190516 16 90 1.6 8.0 0.00 0.00 0.00 38 1015.1
20260503190016 17 90 1.6 3.2 0.00 0.00 0.00 43 1015.2
20260503185517 16 90 1.6 8.0 0.00 0.00 0.00 43 1015.2
20260503185036 16 90 3.2 9.7 0.00 0.00 0.00 46 1015.3
20260503184516 15 90 1.6 9.7 0.00 0.00 0.00 40 1015.1
20260503184017 16 90 1.6 4.8 0.00 0.00 0.00 40 1015.4
20260503183537 16 90 1.6 6.4 0.00 0.00 0.00 40 1015.5
20260503183017 16 90 1.6 4.8 0.00 0.00 0.00 48 1015.5
20260503182516 16 90 3.2 8.0 0.00 0.00 0.00 40 1015.6
20260503182036 16 90 1.6 8.0 0.00 0.00 0.00 42 1015.5
20260503181516 15 90 1.6 4.8 0.00 0.00 0.00 46 1015.5
20260503181016 16 90 1.6 4.8 0.00 0.00 0.00 39 1015.6
20260503180517 16 90 1.6 8.0 0.00 0.00 0.00 44 1015.5
20260503180017 15 90 1.6 8.0 0.00 0.00 0.00 43 1015.6
20260503175516 15 90 1.6 11.3 0.00 0.00 0.00 42 1015.7
20260503175016 16 90 1.6 6.4 0.00 0.00 0.00 42 1015.8
20260503174516 15 90 3.2 11.3 0.00 0.00 0.00 45 1015.9
20260503174017 15 90 1.6 9.7 0.00 0.00 0.00 45 1015.8
20260503173517 15 90 1.6 4.8 0.00 0.00 0.00 49 1015.9
20260503173017 15 90 1.6 9.7 0.00 0.00 0.00 41 1015.9
20260503172516 15 90 3.2 9.7 0.00 0.00 0.00 47 1015.9
20260503172016 15 90 1.6 6.4 0.00 0.00 0.00 46 1015.9
20260503171516 15 90 1.6 9.7 0.00 0.00 0.00 43 1016.0
20260503171016 15 90 1.6 4.8 0.00 0.00 0.00 46 1016.0
20260503170516 15 90 3.2 8.0 0.00 0.00 0.00 44 1016.1
20260503150516 12 90 1.6 8.0 0.00 0.00 0.00 51 1016.7